Naples, Italy

6:45 PM CEST on June 25, 2017 (GMT +0200)
Capodichino Mil

Weather History for LIRN - November, 2011

Change the Weather History Date:

Tuesday, November 8, 2011

  Actual Average Record
Temperature  
Mean Temperature 60 °F -  
Max Temperature 69 °F 61 °F 76 °F (2015)
Min Temperature 50 °F 45 °F 42 °F (2004)
Degree Days  
Heating Degree Days 6    
Growing Degree Days 10 (Base 50)    
Moisture  
Dew Point 49 °F    
Average Humidity 69    
Maximum Humidity 94    
Minimum Humidity 44    
Precipitation  
Precipitation 0.00 in 0.20 in - ()
Sea Level Pressure  
Sea Level Pressure 30.15 in    
Wind  
Wind Speed 4 mph ()    
Max Wind Speed 10 mph    
Max Gust Speed -    
Visibility 7.1 miles    
Events Rain    
Averages and records for this station are not official NWS values.
T = Trace of Precipitation, MM = Missing Value Source: Averaged Metar Reports

Daily Weather History Graph

Daily Weather History Graph

Search for Another Location

Airport or City:

Trip Planner

Search our weather history database for the weather conditions in past years. The results will help you decide how hot, cold, wet, or windy it might be!

Date:

Astronomy

Nov. 08, 2011 Rise Set
Actual Time 6:40 AM CET 4:51 PM CET
Civil Twilight 6:12 AM CET 5:20 PM CET
Nautical Twilight 5:39 AM CET 5:53 PM CET
Astronomical Twilight 5:07 AM CET 6:25 PM CET
Moon 3:23 PM CET (11/8) 4:23 AM CET (11/8)
Length of Visible Light 11h 08m
Length of Day
10h 10m
Waxing Gibbous, 95% of the Moon is Illuminated
Nov 8
Waxing Gibbous
Nov 10
Full
Nov 18
Last Quarter
Nov 25
New
Dec 2
First Quarter

Hourly Weather History & Observations

Time (CET) Temp. Dew Point Humidity Pressure Visibility Wind Dir Wind Speed Gust Speed Precip Events Conditions
12:20 AM 51.8 °F 48.2 °F 88% 30.15 in - North 2.3 mph - N/A   Clear
12:50 AM 50.0 °F 48.2 °F 94% 30.15 in - NNW 3.5 mph - N/A   Clear
1:00 AM 52 °F 50 °F 89% 30.18 in 6 mi North 3.5 mph - -  
1:20 AM 53.6 °F 50.0 °F 88% 30.15 in - North 4.6 mph - N/A   Clear
1:50 AM 53.6 °F 48.2 °F 82% 30.15 in - North 3.5 mph - N/A   Clear
2:20 AM 53.6 °F 48.2 °F 82% 30.15 in - North 4.6 mph - N/A   Clear
2:50 AM 53.6 °F 48.2 °F 82% 30.15 in - NNW 4.6 mph - N/A   Clear
3:20 AM 53.6 °F 46.4 °F 77% 30.15 in 6.2 mi NNW 3.5 mph - N/A   Scattered Clouds
3:50 AM 53.6 °F 46.4 °F 77% 30.15 in 6.2 mi NNW 3.5 mph - N/A   Scattered Clouds
4:00 AM 53 °F 46 °F 71% 30.17 in 11 mi NNW 3.5 mph - -   Partly Cloudy
4:20 AM 51.8 °F 46.4 °F 82% 30.15 in 6.2 mi NNW 3.5 mph - N/A   Scattered Clouds
4:50 AM 53.6 °F 48.2 °F 82% 30.15 in 6.2 mi NNW 4.6 mph - N/A   Scattered Clouds
5:20 AM 53.6 °F 46.4 °F 77% 30.15 in 6.2 mi NNW 4.6 mph - N/A   Scattered Clouds
5:50 AM 51.8 °F 46.4 °F 82% 30.15 in 6.2 mi NNW 3.5 mph - N/A   Scattered Clouds
6:20 AM 51.8 °F 46.4 °F 82% 30.15 in 6.2 mi North 3.5 mph - N/A   Scattered Clouds
6:50 AM 51.8 °F 46.4 °F 82% 30.15 in 6.2 mi North 3.5 mph - N/A   Scattered Clouds
7:00 AM 53 °F 47 °F 74% 30.16 in 9 mi North 3.5 mph - -   Partly Cloudy
7:20 AM 53.6 °F 46.4 °F 77% 30.15 in 6.2 mi NNW 3.5 mph - N/A   Mostly Cloudy
7:50 AM 55.4 °F 48.2 °F 77% 30.15 in 6.2 mi NNE 3.5 mph - N/A   Mostly Cloudy
8:20 AM 59.0 °F 50.0 °F 72% 30.15 in 6.2 mi NNE 3.5 mph - N/A   Mostly Cloudy
8:50 AM 62.6 °F 51.8 °F 68% 30.15 in 6.2 mi Variable 2.3 mph - N/A   Mostly Cloudy
9:20 AM 64.4 °F 53.6 °F 68% 30.15 in 6.2 mi Variable 3.5 mph - N/A   Scattered Clouds
9:50 AM 64.4 °F 53.6 °F 68% 30.15 in 6.2 mi Variable 2.3 mph - N/A   Scattered Clouds
10:00 AM 64 °F 53 °F 59% 30.18 in 12 mi NE 1.2 mph - -   Partly Cloudy
10:20 AM 64.4 °F 53.6 °F 68% 30.18 in 5.0 mi Variable 3.5 mph - N/A Rain Rain
10:50 AM 66.2 °F 53.6 °F 64% 30.18 in 6.2 mi SSE 6.9 mph - N/A Rain Light Rain
11:20 AM 66.2 °F 55.4 °F 68% 30.18 in 6.2 mi South 8.1 mph - N/A   Mostly Cloudy
11:50 AM 66.2 °F 55.4 °F 68% 30.15 in 6.2 mi South 6.9 mph - N/A   Mostly Cloudy
12:20 PM 68.0 °F 53.6 °F 60% 30.15 in 6.2 mi South 5.8 mph - N/A   Mostly Cloudy
12:50 PM 68.0 °F 53.6 °F 60% 30.15 in 6.2 mi South 8.1 mph - N/A   Mostly Cloudy
1:00 PM 67 °F 55 °F 55% 30.16 in 12 mi South 9.2 mph - -   Scattered Clouds
1:20 PM 66.2 °F 53.6 °F 64% 30.15 in 6.2 mi South 10.4 mph - N/A   Mostly Cloudy
1:50 PM 68.0 °F 50.0 °F 52% 30.12 in 6.2 mi South 9.2 mph - N/A   Partly Cloudy
2:20 PM 68.0 °F 48.2 °F 49% 30.12 in 6.2 mi SSE 5.8 mph - N/A   Partly Cloudy
2:50 PM 66.2 °F 48.2 °F 52% 30.12 in 6.2 mi East 4.6 mph - N/A   Partly Cloudy
3:20 PM 66.2 °F 50.0 °F 56% 30.12 in 6.2 mi East 3.5 mph - N/A   Scattered Clouds
3:50 PM 64.4 °F 48.2 °F 56% 30.12 in 6.2 mi ENE 3.5 mph - N/A   Scattered Clouds
4:00 PM 65 °F 48 °F 44% 30.14 in 12 mi NE 3.5 mph - -   Scattered Clouds
4:20 PM 64.4 °F 48.2 °F 56% 30.12 in 6.2 mi North 2.3 mph - N/A   Scattered Clouds
4:50 PM 62.6 °F 46.4 °F 55% 30.12 in 6.2 mi Variable 2.3 mph - N/A   Scattered Clouds
5:20 PM 62.6 °F 48.2 °F 59% 30.12 in 6.2 mi Calm Calm - N/A   Scattered Clouds
5:50 PM 60.8 °F 48.2 °F 63% 30.15 in 6.2 mi Variable 2.3 mph - N/A   Scattered Clouds
6:20 PM 59.0 °F 48.2 °F 67% 30.15 in 6.2 mi Variable 2.3 mph - N/A   Scattered Clouds
6:50 PM 59.0 °F 48.2 °F 67% 30.15 in 6.2 mi ENE 4.6 mph - N/A   Scattered Clouds
7:00 PM 60 °F 48 °F 54% 30.16 in 12 mi ENE 4.6 mph - -   Mostly Cloudy
7:20 PM 60.8 °F 48.2 °F 63% 30.15 in 6.2 mi East 3.5 mph - N/A   Scattered Clouds
7:50 PM 59.0 °F 48.2 °F 67% 30.15 in - North 3.5 mph - N/A   Clear
8:20 PM 57.2 °F 48.2 °F 72% 30.15 in - North 3.5 mph - N/A   Clear
8:50 PM 59.0 °F 48.2 °F 67% 30.15 in - NNE 4.6 mph - N/A   Clear
9:20 PM 57.2 °F 48.2 °F 72% 30.15 in - North 4.6 mph - N/A   Clear
9:50 PM 57.2 °F 46.4 °F 67% 30.15 in - North 4.6 mph - N/A   Clear
10:00 PM 58 °F 47 °F 57% 30.17 in 12 mi North 5.8 mph - -  
10:20 PM 57.2 °F 46.4 °F 67% 30.15 in - North 3.5 mph - N/A   Clear
10:50 PM 55.4 °F 46.4 °F 72% 30.15 in - North 5.8 mph - N/A   Clear
11:20 PM 55.4 °F 46.4 °F 72% 30.15 in - NNE 5.8 mph - N/A   Clear
11:50 PM 55.4 °F 46.4 °F 72% 30.15 in - North 4.6 mph - N/A   Clear